Weather History for KFLG - June, 2013

Change the Weather History Date:

Wednesday, June 26, 2013

  Actual Average Record
Temperature  
Mean Temperature 65 °F 63 °F  
Max Temperature 84 °F 81 °F 96 °F (1970)
Min Temperature 45 °F 46 °F 26 °F (1975)
Degree Days  
Heating Degree Days 0 3  
Month to date heating degree days 59 160  
Since 1 July heating degree days 6720 6933  
Cooling Degree Days 0 1  
Month to date cooling degree days 16 9  
Year to date cooling degree days 16 9  
Growing Degree Days 14 (Base 50)    
Moisture  
Dew Point 21 °F    
Average Humidity 24    
Maximum Humidity 38    
Minimum Humidity 10    
Precipitation  
Precipitation 0.00 in 0.02 in 0.32 in (1954)
Month to date precipitation 0.01 0.28  
Year to date precipitation 5.24 8.39  
Snow  
Snow 0.00 in 0.00 in 0.00 in (2002)
Month to date snowfall 0.0 0.1  
Since 1 July snowfall 69.7 101.8  
Snow Depth 0.00 in    
Sea Level Pressure  
Sea Level Pressure 30.03 in    
Wind  
Wind Speed 7 mph (SSW)    
Max Wind Speed 22 mph    
Max Gust Speed 31 mph    
Visibility 10 miles    
Events      
T = Trace of Precipitation, MM = Missing Value Source: NWS Daily Summary

Daily Weather History Graph

Daily Weather History Graph

Search for Another Location

Airport or City:

Trip Planner

Search our weather history database for the weather conditions in past years. The results will help you decide how hot, cold, wet, or windy it might be!

Date:

Astronomy

Jun. 26, 2013 Rise Set
Actual Time 5:14 AM MST 7:45 PM MST
Civil Twilight 4:44 AM MST 8:14 PM MST
Nautical Twilight 4:07 AM MST 8:51 PM MST
Astronomical Twilight 3:26 AM MST 9:32 PM MST
Moon 10:20 PM MST (6/26) 9:01 AM MST (6/26)
Length of Visible Light 15h 30m
Length of Day
14h 30m
Waning Gibbous, 84% of the Moon is Illuminated
Jun 26
Waning Gibbous
Jun 29
Last Quarter
Jul 8
New
Jul 15
First Quarter
Jul 22
Full

Hourly Weather History & Observations

Time (MST) Temp. Dew Point Humidity Pressure Visibility Wind Dir Wind Speed Gust Speed Precip Events Conditions
12:57 AM 50.0 °F 24.1 °F 36% 30.01 in 10.0 mi Calm Calm - N/A   Clear
1:57 AM 50.0 °F 23.0 °F 35% 30.01 in 10.0 mi Calm Calm - N/A   Clear
2:57 AM 48.9 °F 23.0 °F 36% 30.01 in 10.0 mi Calm Calm - N/A   Clear
3:57 AM 46.0 °F 23.0 °F 40% 30.03 in 10.0 mi Calm Calm - N/A   Clear
4:57 AM 46.0 °F 21.9 °F 39% 30.04 in 10.0 mi Calm Calm - N/A   Clear
5:57 AM 48.9 °F 21.9 °F 35% 30.05 in 10.0 mi Calm Calm - N/A   Clear
6:57 AM 64.0 °F 27.0 °F 25% 30.01 in 10.0 mi Calm Calm - N/A   Clear
7:57 AM 71.1 °F 21.9 °F 16% 30.01 in 10.0 mi SW 8.1 mph - N/A   Clear
8:57 AM 73.9 °F 19.0 °F 13% 30.01 in 10.0 mi SW 12.7 mph - N/A   Clear
9:57 AM 75.9 °F 19.0 °F 12% 30.03 in 10.0 mi SW 12.7 mph 18.4 mph N/A   Clear
10:57 AM 79.0 °F 18.0 °F 10% 30.04 in 7.0 mi South 9.2 mph 19.6 mph N/A   Clear
11:57 AM 80.1 °F 19.9 °F 11% 30.05 in 10.0 mi SSW 12.7 mph 23.0 mph N/A   Clear
12:57 PM 81.0 °F 21.0 °F 11% 30.05 in 10.0 mi South 12.7 mph 21.9 mph N/A   Clear
1:57 PM 82.9 °F 21.0 °F 10% 30.04 in 10.0 mi SSW 15.0 mph 25.3 mph N/A   Clear
2:57 PM 82.9 °F 23.0 °F 11% 30.03 in 10.0 mi SSW 19.6 mph 24.2 mph N/A   Clear
3:57 PM 82.9 °F 21.9 °F 11% 30.03 in 10.0 mi South 13.8 mph 23.0 mph N/A   Clear
4:57 PM 82.9 °F 21.0 °F 10% 30.03 in 10.0 mi SW 15.0 mph 23.0 mph N/A   Clear
5:57 PM 82.0 °F 19.9 °F 10% 30.01 in 10.0 mi SSW 15.0 mph - N/A   Clear
6:57 PM 79.0 °F 19.0 °F 11% 29.97 in 10.0 mi SSW 13.8 mph - N/A   Clear
7:57 PM 73.9 °F 17.1 °F 12% 29.99 in 10.0 mi SW 6.9 mph - N/A   Clear
8:57 PM 66.9 °F 18.0 °F 15% 30.01 in 10.0 mi SW 4.6 mph - N/A   Clear
9:57 PM 63.0 °F 19.0 °F 18% 30.04 in 10.0 mi Calm Calm - N/A   Clear
10:57 PM 61.0 °F 21.9 °F 22% 30.06 in 10.0 mi Calm Calm - N/A   Clear
11:57 PM 57.9 °F 24.1 °F 27% 30.06 in 10.0 mi Calm Calm - N/A   Clear